SCP
-0 -0 0 0 0 0 0 0 0 0 0 0 0 0 0 -0 -0 0 -0 -0 -0 0 -0 -0 0 0 -0 -0 -0 -0 -0 -0 -0 -0 -0 -0 -0 -0 -0 -0 -0 -0 -0 -0 -0 -0 -0 0 0
-0 0 0 0 0 0 0 0 0 0 0 0 0 0 0 0 0 0 -0 -0 0 0 0 0 0 0 0 -0 -0 -0 -0 -0 -0 -0 -0 -0 -0 -0 -0 -0 -0 -0 -0 -0 -0 -0 -0 -0 0
0 0 0 0 0 0 0 0 0 0 0 0 0 0 0 0 0 0 0 0 0 -0 0 0 0 0 0 0 0 -0 -0 -0 -0 -0 -0 -0 -0 -0 -0 -0 -0 -0 -0 -0 -0 -0 -0 -0 0
-0 -0 0 0 0 0 0 0 0 0 0 0 0 0 0 0 0 0 0 0 0 0 1 -0 1 1 1 0 0 0 -0 -0 -0 -0 -0 -0 -0 -0 -0 -0 -0 -0 -0 -0 -0 -0 -0 -0 0
-0 -0 0 0 -0 0 0 0 0 0 0 0 0 0 0 0 0 0 0 0 0 0 1 1 1 1 1 1 0 0 0 0 -0 -0 -0 -0 -0 -0 -0 -0 -0 -0 -0 -0 -0 -0 -0 -0 -0
-0 0 0 -0 -0 0 0 0 0 0 0 0 0 0 0 0 0 0 0 0 0 0 1 1 1 1 1 1 1 0 0 0 0 0 0 0 0 0 0 0 -0 -0 -0 -0 -0 -0 -0 -0 -0
0 -0 -0 -0 0 0 0 0 0 0 0 0 0 0 0 0 0 0 0 0 0 0 1 1 0 1 1 1 1 1 1 0 0 0 0 0 0 0 0 0 0 0 0 0 -0 -0 0 -0 -0
-0 -0 0 0 0 0 0 0 0 0 0 0 0 0 0 0 0 0 0 0 0 0 0 1 1 0 0 1 1 1 1 1 1 1 0 0 0 0 0 0 0 0 0 0 0 0 0 0 0
-0 -0 0 0 0 0 0 0 0 0 0 0 0 0 0 0 0 0 0 0 0 0 0 1 1 0 0 0 1 1 1 1 1 1 1 1 0 0 0 0 0 0 0 0 0 0 0 0 0
-0 0 0 0 0 0 0 0 0 0 0 0 0 0 0 0 0 0 0 0 0 0 0 0 1 1 0 0 1 1 1 1 1 0 0 0 0 0 0 0 0 0 0 0 0 0 0 0 0
0 0 0 0 0 0 0 0 0 0 0 0 0 0 0 0 0 0 0 0 0 0 0 0 0 2 2 0 0 1 1 1 1 1 1 0 0 0 0 0 0 0 0 0 0 0 0 0 -0
0 0 0 0 0 0 0 0 0 0 0 0 0 0 0 0 0 0 0 0 0 0 0 0 0 1 2 2 0 1 0 1 1 1 1 1 1 1 0 0 0 0 0 0 0 0 0 0 0
0 0 0 0 0 0 0 0 0 0 0 0 0 0 -0 -0 0 0 0 0 0 0 0 0 0 1 2 1 2 2 1 0 0 0 1 0 0 1 0 0 0 0 0 0 0 0 0 0 0
0 0 0 0 0 0 0 0 0 0 0 0 0 0 0 0 0 0 0 0 0 0 0 0 0 0 1 2 1 4 3 1 0 0 1 1 1 1 0 0 0 0 0 0 0 0 0 0 0
0 0 0 0 0 0 0 0 0 0 0 0 0 0 0 0 0 0 0 0 0 0 0 0 0 0 0 2 3 2 3 1 1 0 1 1 1 1 1 0 0 0 0 0 0 0 0 0 0
0 0 -0 0 0 0 0 0 0 0 0 0 0 0 0 0 0 0 0 0 0 0 0 0 0 0 0 0 4 3 3 4 2 1 1 2 1 1 2 0 0 0 0 0 0 0 0 0 0
0 -0 0 0 0 0 0 0 0 0 0 0 0 0 0 0 0 0 0 0 0 0 0 0 0 0 0 0 2 5 2 4 4 3 2 2 1 1 2 0 0 1 0 0 0 0 0 0 0
0 0 0 0 0 0 0 0 0 0 0 0 0 0 0 0 0 0 0 0 0 0 0 0 0 -0 0 0 0 2 2 2 4 5 3 3 2 1 2 0 0 1 0 0 0 0 0 0 0
0 0 0 0 0 0 0 0 0 0 0 0 0 0 0 0 0 0 0 0 0 0 0 0 0 0 -0 0 0 1 3 3 3 5 4 4 2 1 2 1 1 1 0 0 1 1 1 0 0
0 0 0 0 0 0 0 0 0 0 0 0 0 0 0 0 0 0 0 0 0 0 0 0 0 0 0 0 0 0 2 2 4 5 5 5 4 2 3 2 1 1 0 1 2 1 0 0 0
0 0 0 0 0 0 0 0 0 0 0 0 0 0 0 0 0 0 0 0 0 0 0 0 0 0 0 0 0 0 2 3 3 6 7 6 5 3 3 2 2 2 1 1 2 2 1 0 0
0 0 0 0 0 0 0 0 0 0 0 0 0 0 0 0 0 0 0 0 0 0 0 0 0 0 0 0 1 1 1 2 0 6 11 7 6 3 2 3 3 3 1 1 2 1 0 1 0
0 0 0 0 0 0 0 0 0 0 0 0 0 0 0 0 0 0 0 0 0 0 0 0 0 0 -0 0 0 0 0 3 0 1 3 6 6 4 2 2 3 5 2 2 1 1 1 0 0
0 -0 0 0 0 0 0 0 0 0 0 0 0 0 0 0 0 0 0 0 0 0 0 0 0 0 -0 -0 0 0 0 3 1 7 3 5 5 6 4 2 3 4 3 2 3 3 1 1 1
0 0 0 0 0 0 0 0 0 0 0 0 0 0 0 0 0 0 0 0 0 0 0 0 0 0 0 -0 -0 0 0 3 3 1 4 5 7 5 5 4 3 3 3 4 1 4 2 2 1
0 0 0 0 0 0 0 0 0 0 0 0 0 0 0 0 0 0 0 0 0 0 0 0 0 0 -0 0 -0 0 0 0 3 3 6 5 5 5 5 4 4 3 3 4 2 4 3 2 3
0 0 0 0 0 0 0 0 0 0 0 0 0 0 0 0 0 0 0 0 0 0 0 0 0 0 0 0 -0 0 0 0 0 2 1 3 4 4 5 5 5 5 4 5 6 4 3 2 2
0 0 0 0 0 0 0 0 0 0 0 0 0 0 0 0 0 0 0 0 0 0 0 0 0 0 0 0 0 0 0 0 0 3 2 1 2 3 4 5 5 5 4 5 5 4 3 3 3
0 0 0 0 0 0 0 0 0 0 0 0 0 0 0 0 0 0 0 0 0 0 0 0 0 0 0 0 0 0 0 0 0 0 5 1 1 1 3 6 5 4 5 4 4 3 3 1 3
0 0 0 0 0 0 0 0 0 0 0 0 0 0 0 0 0 0 0 0 0 0 -0 0 0 0 0 0 0 0 0 0 0 0 0 1 1 0 1 0 3 4 3 4 3 3 1 1 1
Wind_Speed_500mb
4 9 9 13 14 15 26 4 15 11 20 22 19 20 18 43 31 12 33 46 33 7 22 45 43 38 37 33 34 35 35 30 27 27 31 34 37 39 40 42 42 37 31 29 27 23 24 27 26
6 9 11 22 16 23 16 25 14 29 19 19 13 23 15 34 31 24 42 46 33 3 19 43 47 40 37 35 34 36 39 34 29 27 32 35 39 41 41 42 42 38 31 29 25 23 23 25 23
3 11 26 11 25 26 15 29 22 14 11 18 17 14 9 13 26 26 40 39 32 6 17 31 48 43 38 37 35 35 42 39 33 30 31 35 39 41 42 43 43 39 31 27 24 22 23 24 20
5 12 19 18 28 10 18 21 16 8 6 16 23 5 11 7 16 32 42 35 29 7 16 30 44 47 41 39 37 36 44 44 38 35 33 36 38 41 42 42 44 40 33 27 24 23 22 22 19
8 18 19 22 26 19 12 16 11 12 12 23 20 20 18 3 12 37 39 34 28 14 14 29 30 49 44 41 39 37 45 48 42 39 36 37 40 42 43 42 42 39 35 29 25 23 22 21 18
23 13 19 21 19 20 7 15 12 12 16 20 16 27 16 1 16 40 40 33 27 13 11 27 30 48 49 44 42 39 47 51 46 43 39 39 42 44 44 44 41 39 36 30 26 24 23 21 19
24 17 26 26 15 1 17 9 15 19 21 18 23 26 24 10 34 45 38 32 24 17 12 25 35 43 55 48 45 42 47 54 51 47 42 40 43 45 46 45 42 38 36 32 29 27 25 22 21
19 13 30 15 17 11 17 7 8 18 24 23 21 13 31 43 47 44 36 29 23 16 13 21 27 29 56 55 51 46 50 56 56 52 47 44 44 47 47 47 45 39 38 34 32 30 28 24 22
12 13 20 12 4 10 14 16 18 21 26 24 22 23 27 38 42 38 35 28 23 18 15 21 24 29 39 41 54 54 56 58 58 57 53 48 48 49 51 49 49 44 42 37 34 31 29 25 22
14 15 15 16 16 14 20 19 20 19 19 22 22 25 29 32 36 36 34 33 28 22 24 20 25 33 38 43 43 60 64 64 65 64 62 55 48 44 44 47 53 49 45 40 37 33 30 24 16
2 14 17 8 11 15 20 21 20 22 20 19 25 35 34 36 31 33 34 33 32 31 28 28 25 42 44 44 47 41 49 63 67 69 66 63 44 42 47 42 53 52 50 44 40 36 30 22 15
18 0 5 7 8 17 18 23 23 18 25 24 20 29 34 39 35 33 33 33 34 34 33 33 29 35 52 52 53 46 51 53 57 60 63 60 56 52 47 45 39 44 41 36 32 27 25 21 24
19 4 9 12 15 15 21 29 25 32 18 18 25 28 32 35 36 38 34 34 34 34 34 30 37 29 52 67 54 59 51 57 56 56 64 58 59 57 51 51 42 42 40 38 34 30 28 28 24
7 16 20 18 16 13 23 30 30 32 14 27 29 32 33 34 37 40 42 40 37 37 38 37 43 40 41 53 70 56 62 58 58 58 63 69 64 61 52 55 49 45 44 39 39 35 32 29 23
18 23 18 23 7 17 19 34 20 9 27 33 36 33 33 33 35 38 41 44 44 44 43 41 43 46 43 56 66 74 68 66 63 61 64 70 70 66 61 54 53 48 45 44 40 39 36 27 26
19 16 25 27 17 4 10 27 14 24 28 37 37 34 28 28 32 34 36 38 43 44 46 44 50 53 58 44 71 78 77 73 70 66 66 74 78 68 74 55 55 49 48 46 44 40 36 31 28
19 18 13 21 10 15 16 32 33 33 30 28 26 21 25 31 33 32 34 37 39 44 47 50 51 54 59 58 49 78 91 78 81 72 69 75 72 73 69 60 54 55 51 46 44 41 37 32 31
17 23 23 21 12 22 31 38 33 31 29 20 12 17 23 27 34 36 35 37 40 44 46 46 51 56 62 69 69 67 84 100 85 81 77 75 77 74 78 64 58 61 53 47 45 46 42 35 36
22 25 27 25 17 18 30 38 39 31 23 10 9 14 19 28 33 35 39 40 42 44 48 50 50 53 57 61 58 65 80 99 93 89 86 83 82 78 81 67 69 68 58 53 54 51 48 49 35
23 26 29 21 9 26 37 37 38 22 16 10 11 12 19 29 34 38 42 44 45 47 49 48 49 52 55 55 60 60 80 97 116 106 99 94 86 82 85 77 68 68 57 61 58 59 45 43 43
25 23 23 26 32 43 36 44 24 17 17 21 17 12 22 29 37 44 50 50 48 48 49 50 50 52 55 59 62 73 78 98 101 113 96 96 95 86 88 82 69 70 62 61 70 69 56 45 47
23 6 21 29 24 18 13 15 24 36 29 28 20 15 22 29 39 52 54 53 54 51 50 50 51 51 51 56 52 60 86 98 97 116 98 93 94 88 77 82 84 76 71 60 71 67 62 51 51
21 21 31 31 32 29 35 18 29 23 29 29 7 13 21 30 42 58 57 55 55 52 51 50 51 49 49 54 63 64 83 103 89 96 101 90 87 88 81 78 86 85 84 78 73 65 64 67 49
23 32 38 32 19 17 29 20 18 9 7 5 5 15 25 38 53 63 55 56 55 53 50 53 53 49 53 52 64 63 82 95 86 77 98 88 81 85 88 81 87 97 93 84 79 67 62 63 61
23 25 9 9 17 18 11 15 31 15 15 5 8 18 31 47 56 55 58 62 57 51 52 54 52 53 53 55 68 61 66 85 93 87 95 90 85 77 87 87 89 89 95 86 78 74 66 67 63
14 11 9 10 14 23 37 18 9 12 15 6 8 19 36 49 58 60 61 60 58 52 53 55 56 54 51 58 64 60 47 72 93 96 68 72 82 84 83 92 93 89 90 90 86 69 68 62 71
12 11 18 12 28 21 21 28 27 25 11 19 24 31 45 55 58 61 62 56 50 53 55 55 57 55 52 52 56 55 52 43 69 94 88 64 79 89 97 96 108 97 95 91 84 77 66 63 70
21 12 7 7 10 16 20 33 17 11 10 19 25 43 47 56 57 58 58 58 58 51 53 53 54 55 52 48 49 55 48 39 60 53 65 97 76 78 88 93 101 98 90 84 82 79 65 71 60
15 19 13 7 14 10 15 10 8 16 13 21 29 46 43 57 56 57 61 62 58 55 52 55 52 51 51 47 48 51 47 41 43 61 64 82 79 71 103 86 90 99 99 92 90 85 79 73 73
21 26 24 11 10 15 18 28 23 5 8 30 36 47 51 55 56 55 58 62 57 52 54 52 51 50 49 49 48 46 47 40 43 56 53 63 65 75 43 66 81 94 99 95 91 85 74 80 79
Wind_Direction_500mb
351 318 287 256 245 229 259 202 35 82 94 10 2 8 358 54 6 41 354 355 356 351 226 196 183 182 183 186 188 191 189 185 177 169 166 169 171 173 170 165 164 163 159 155 156 151 143 137 132
144 260 251 262 253 250 229 89 91 52 16 346 4 358 7 79 37 22 359 356 357 356 214 195 189 187 190 196 197 196 196 193 189 182 175 176 177 178 175 172 171 170 168 162 162 159 153 146 142
117 239 260 231 236 257 39 45 43 26 9 8 355 328 22 15 31 7 354 353 355 23 204 201 194 192 197 200 208 205 203 201 197 190 182 182 185 185 179 179 179 178 178 176 171 169 161 157 159
246 215 245 253 256 75 12 48 17 313 58 359 359 8 87 86 22 359 355 355 352 335 226 237 206 201 201 204 211 211 209 207 203 197 188 186 190 190 185 186 186 186 187 185 181 179 171 166 172
233 259 258 233 249 83 41 21 341 336 355 333 352 348 334 161 11 352 352 351 350 332 215 235 237 206 206 210 210 213 213 209 207 203 195 192 192 193 191 190 191 193 193 190 189 190 185 178 182
246 273 252 241 223 95 112 0 357 3 334 328 358 328 303 142 353 345 343 343 343 334 214 241 251 220 210 211 212 211 214 212 209 207 202 199 197 198 197 196 196 197 196 194 196 198 198 191 194
257 265 271 294 314 219 90 13 355 336 311 338 336 312 278 283 338 332 330 329 327 330 249 252 266 228 210 211 213 213 213 213 212 210 209 205 203 203 202 202 203 203 202 198 201 203 207 201 205
276 285 270 258 260 105 101 325 338 310 326 312 301 315 313 322 318 321 320 318 317 309 281 236 254 235 210 211 212 213 212 214 214 214 213 211 208 208 208 208 209 207 208 206 205 208 213 213 214
267 260 253 287 45 1 16 343 324 319 300 310 301 299 319 318 319 319 316 311 306 323 293 255 237 224 214 212 216 211 213 214 216 218 217 215 212 212 214 213 214 213 213 213 211 211 217 222 226
252 259 15 25 2 324 330 329 323 321 309 295 328 319 322 327 326 324 317 310 301 299 310 277 254 228 220 217 222 215 213 214 215 217 220 215 211 215 210 215 217 213 218 216 215 215 219 224 235
137 304 36 42 21 322 318 302 331 302 295 347 313 317 320 325 323 324 322 311 306 294 295 311 262 245 226 220 220 218 211 216 215 217 220 215 210 213 206 212 221 215 215 219 217 218 221 226 204
257 72 326 335 315 303 306 317 293 311 303 310 300 310 312 317 317 319 319 318 307 301 294 287 301 260 233 220 220 222 213 215 214 210 216 215 199 210 210 208 214 211 217 208 222 217 215 212 221
256 151 264 272 289 290 309 294 299 293 303 292 300 300 303 307 308 309 309 310 310 303 301 298 295 284 256 221 224 219 219 216 214 213 214 208 206 207 209 204 210 212 208 209 210 207 220 215 220
28 279 280 267 277 278 307 293 292 283 315 302 304 303 303 307 308 305 304 304 305 304 299 295 296 283 266 260 217 224 220 217 215 214 211 208 203 208 207 202 205 209 206 211 206 211 213 213 217
277 270 254 235 234 279 326 275 228 318 304 304 305 309 313 313 314 312 308 302 301 298 296 292 298 298 293 265 246 222 222 214 217 215 214 218 200 206 204 204 205 204 207 207 209 211 212 216 211
258 258 256 141 206 275 247 288 280 313 293 299 305 311 312 328 330 323 320 306 303 303 299 296 293 289 287 287 260 247 222 220 214 215 216 219 205 200 210 206 207 203 205 207 206 206 209 210 212
191 271 285 291 191 253 236 286 285 294 294 294 295 311 330 328 331 329 319 308 300 303 304 297 292 288 285 276 272 255 237 219 212 213 216 220 208 202 211 201 209 202 205 210 205 210 208 212 208
331 308 294 283 287 241 281 281 286 294 282 283 298 308 327 331 332 327 321 310 302 301 302 299 295 291 286 278 270 256 246 222 215 211 212 217 215 207 211 201 206 203 204 209 206 206 207 206 209
289 274 273 272 292 299 270 285 281 278 272 237 285 318 328 329 329 328 323 314 305 301 302 302 296 294 291 283 274 268 252 238 216 213 210 212 222 208 210 200 202 209 202 203 205 204 204 196 205
265 268 270 301 232 292 288 277 277 252 215 230 264 298 318 321 324 324 324 323 309 299 298 301 300 296 293 284 276 264 259 248 223 207 209 205 213 207 209 202 209 209 198 202 208 199 200 202 199
255 274 295 306 304 278 268 273 216 182 215 211 246 288 315 322 324 323 322 318 314 303 297 294 299 295 296 289 276 268 255 253 241 208 207 204 210 210 207 210 202 210 195 205 203 209 196 200 201
276 50 295 291 296 295 311 297 203 197 201 226 221 276 319 321 322 323 318 316 313 306 298 294 296 299 298 297 290 273 261 246 240 211 202 203 207 208 211 211 199 211 207 202 210 212 203 197 200
276 323 290 281 277 281 268 236 271 161 223 229 195 311 307 315 322 325 319 314 310 305 300 296 293 302 299 299 287 271 252 252 243 225 196 200 202 211 206 211 208 208 218 206 215 210 205 198 202
290 279 272 257 256 261 254 239 281 288 220 43 292 292 308 315 320 321 317 314 308 307 305 303 295 296 303 301 301 277 256 249 239 223 213 203 205 209 211 212 213 213 219 216 217 217 218 207 197
234 281 308 259 196 235 117 256 255 266 176 257 308 304 317 313 323 321 318 316 312 307 309 306 302 300 301 312 306 298 262 246 245 232 213 195 206 206 210 209 215 214 217 213 213 215 215 210 204
293 305 277 269 271 303 325 272 262 69 105 176 260 286 305 321 324 320 318 316 312 313 311 310 310 307 310 314 313 308 282 240 245 242 223 200 203 209 214 212 213 215 216 208 212 207 206 210 199
129 261 29 304 266 253 239 254 198 135 183 229 256 312 320 330 321 323 322 318 319 314 313 311 311 310 311 312 314 317 309 257 235 244 240 221 218 220 219 216 209 210 211 203 204 198 206 205 205
255 25 234 214 277 293 293 301 303 169 255 357 323 326 323 323 324 325 324 323 319 317 313 312 308 308 307 310 313 315 317 284 236 232 246 236 220 215 209 215 211 206 202 201 201 201 206 200 210
179 226 227 270 269 279 302 278 74 323 349 311 323 316 327 325 322 325 326 323 319 320 315 313 310 308 307 309 311 316 321 302 251 230 227 240 237 224 211 211 207 204 202 203 204 207 198 210 203
272 268 186 221 246 250 288 278 289 333 262 307 311 322 331 321 323 326 323 325 323 318 320 314 311 310 308 307 307 312 312 312 271 243 234 234 232 239 244 218 208 201 204 202 202 204 202 205 210
Wind_Speed_850mb
4 9 9 13 14 15 26 4 15 11 20 22 19 20 18 43 31 12 33 46 33 7 22 45 43 38 37 33 34 35 35 30 27 27 31 34 37 39 40 42 42 37 31 29 27 23 24 27 26
6 9 11 22 16 23 16 25 14 29 19 19 13 23 15 34 31 24 42 46 33 3 19 43 47 40 37 35 34 36 39 34 29 27 32 35 39 41 41 42 42 38 31 29 25 23 23 25 23
3 11 26 11 25 26 15 29 22 14 11 18 17 14 9 13 26 26 40 39 32 6 17 31 48 43 38 37 35 35 42 39 33 30 31 35 39 41 42 43 43 39 31 27 24 22 23 24 20
5 12 19 18 28 10 18 21 16 8 6 16 23 5 11 7 16 32 42 35 29 7 16 30 44 47 41 39 37 36 44 44 38 35 33 36 38 41 42 42 44 40 33 27 24 23 22 22 19
8 18 19 22 26 19 12 16 11 12 12 23 20 20 18 3 12 37 39 34 28 14 14 29 30 49 44 41 39 37 45 48 42 39 36 37 40 42 43 42 42 39 35 29 25 23 22 21 18
23 13 19 21 19 20 7 15 12 12 16 20 16 27 16 1 16 40 40 33 27 13 11 27 30 48 49 44 42 39 47 51 46 43 39 39 42 44 44 44 41 39 36 30 26 24 23 21 19
24 17 26 26 15 1 17 9 15 19 21 18 23 26 24 10 34 45 38 32 24 17 12 25 35 43 55 48 45 42 47 54 51 47 42 40 43 45 46 45 42 38 36 32 29 27 25 22 21
19 13 30 15 17 11 17 7 8 18 24 23 21 13 31 43 47 44 36 29 23 16 13 21 27 29 56 55 51 46 50 56 56 52 47 44 44 47 47 47 45 39 38 34 32 30 28 24 22
12 13 20 12 4 10 14 16 18 21 26 24 22 23 27 38 42 38 35 28 23 18 15 21 24 29 39 41 54 54 56 58 58 57 53 48 48 49 51 49 49 44 42 37 34 31 29 25 22
14 15 15 16 16 14 20 19 20 19 19 22 22 25 29 32 36 36 34 33 28 22 24 20 25 33 38 43 43 60 64 64 65 64 62 55 48 44 44 47 53 49 45 40 37 33 30 24 16
2 14 17 8 11 15 20 21 20 22 20 19 25 35 34 36 31 33 34 33 32 31 28 28 25 42 44 44 47 41 49 63 67 69 66 63 44 42 47 42 53 52 50 44 40 36 30 22 15
18 0 5 7 8 17 18 23 23 18 25 24 20 29 34 39 35 33 33 33 34 34 33 33 29 35 52 52 53 46 51 53 57 60 63 60 56 52 47 45 39 44 41 36 32 27 25 21 24
19 4 9 12 15 15 21 29 25 32 18 18 25 28 32 35 36 38 34 34 34 34 34 30 37 29 52 67 54 59 51 57 56 56 64 58 59 57 51 51 42 42 40 38 34 30 28 28 24
7 16 20 18 16 13 23 30 30 32 14 27 29 32 33 34 37 40 42 40 37 37 38 37 43 40 41 53 70 56 62 58 58 58 63 69 64 61 52 55 49 45 44 39 39 35 32 29 23
18 23 18 23 7 17 19 34 20 9 27 33 36 33 33 33 35 38 41 44 44 44 43 41 43 46 43 56 66 74 68 66 63 61 64 70 70 66 61 54 53 48 45 44 40 39 36 27 26
19 16 25 27 17 4 10 27 14 24 28 37 37 34 28 28 32 34 36 38 43 44 46 44 50 53 58 44 71 78 77 73 70 66 66 74 78 68 74 55 55 49 48 46 44 40 36 31 28
19 18 13 21 10 15 16 32 33 33 30 28 26 21 25 31 33 32 34 37 39 44 47 50 51 54 59 58 49 78 91 78 81 72 69 75 72 73 69 60 54 55 51 46 44 41 37 32 31
17 23 23 21 12 22 31 38 33 31 29 20 12 17 23 27 34 36 35 37 40 44 46 46 51 56 62 69 69 67 84 100 85 81 77 75 77 74 78 64 58 61 53 47 45 46 42 35 36
22 25 27 25 17 18 30 38 39 31 23 10 9 14 19 28 33 35 39 40 42 44 48 50 50 53 57 61 58 65 80 99 93 89 86 83 82 78 81 67 69 68 58 53 54 51 48 49 35
23 26 29 21 9 26 37 37 38 22 16 10 11 12 19 29 34 38 42 44 45 47 49 48 49 52 55 55 60 60 80 97 116 106 99 94 86 82 85 77 68 68 57 61 58 59 45 43 43
25 23 23 26 32 43 36 44 24 17 17 21 17 12 22 29 37 44 50 50 48 48 49 50 50 52 55 59 62 73 78 98 101 113 96 96 95 86 88 82 69 70 62 61 70 69 56 45 47
23 6 21 29 24 18 13 15 24 36 29 28 20 15 22 29 39 52 54 53 54 51 50 50 51 51 51 56 52 60 86 98 97 116 98 93 94 88 77 82 84 76 71 60 71 67 62 51 51
21 21 31 31 32 29 35 18 29 23 29 29 7 13 21 30 42 58 57 55 55 52 51 50 51 49 49 54 63 64 83 103 89 96 101 90 87 88 81 78 86 85 84 78 73 65 64 67 49
23 32 38 32 19 17 29 20 18 9 7 5 5 15 25 38 53 63 55 56 55 53 50 53 53 49 53 52 64 63 82 95 86 77 98 88 81 85 88 81 87 97 93 84 79 67 62 63 61
23 25 9 9 17 18 11 15 31 15 15 5 8 18 31 47 56 55 58 62 57 51 52 54 52 53 53 55 68 61 66 85 93 87 95 90 85 77 87 87 89 89 95 86 78 74 66 67 63
14 11 9 10 14 23 37 18 9 12 15 6 8 19 36 49 58 60 61 60 58 52 53 55 56 54 51 58 64 60 47 72 93 96 68 72 82 84 83 92 93 89 90 90 86 69 68 62 71
12 11 18 12 28 21 21 28 27 25 11 19 24 31 45 55 58 61 62 56 50 53 55 55 57 55 52 52 56 55 52 43 69 94 88 64 79 89 97 96 108 97 95 91 84 77 66 63 70
21 12 7 7 10 16 20 33 17 11 10 19 25 43 47 56 57 58 58 58 58 51 53 53 54 55 52 48 49 55 48 39 60 53 65 97 76 78 88 93 101 98 90 84 82 79 65 71 60
15 19 13 7 14 10 15 10 8 16 13 21 29 46 43 57 56 57 61 62 58 55 52 55 52 51 51 47 48 51 47 41 43 61 64 82 79 71 103 86 90 99 99 92 90 85 79 73 73
21 26 24 11 10 15 18 28 23 5 8 30 36 47 51 55 56 55 58 62 57 52 54 52 51 50 49 49 48 46 47 40 43 56 53 63 65 75 43 66 81 94 99 95 91 85 74 80 79
Wind_Direction_850mb
351 318 287 256 245 229 259 202 35 82 94 10 2 8 358 54 6 41 354 355 356 351 226 196 183 182 183 186 188 191 189 185 177 169 166 169 171 173 170 165 164 163 159 155 156 151 143 137 132
144 260 251 262 253 250 229 89 91 52 16 346 4 358 7 79 37 22 359 356 357 356 214 195 189 187 190 196 197 196 196 193 189 182 175 176 177 178 175 172 171 170 168 162 162 159 153 146 142
117 239 260 231 236 257 39 45 43 26 9 8 355 328 22 15 31 7 354 353 355 23 204 201 194 192 197 200 208 205 203 201 197 190 182 182 185 185 179 179 179 178 178 176 171 169 161 157 159
246 215 245 253 256 75 12 48 17 313 58 359 359 8 87 86 22 359 355 355 352 335 226 237 206 201 201 204 211 211 209 207 203 197 188 186 190 190 185 186 186 186 187 185 181 179 171 166 172
233 259 258 233 249 83 41 21 341 336 355 333 352 348 334 161 11 352 352 351 350 332 215 235 237 206 206 210 210 213 213 209 207 203 195 192 192 193 191 190 191 193 193 190 189 190 185 178 182
246 273 252 241 223 95 112 0 357 3 334 328 358 328 303 142 353 345 343 343 343 334 214 241 251 220 210 211 212 211 214 212 209 207 202 199 197 198 197 196 196 197 196 194 196 198 198 191 194
257 265 271 294 314 219 90 13 355 336 311 338 336 312 278 283 338 332 330 329 327 330 249 252 266 228 210 211 213 213 213 213 212 210 209 205 203 203 202 202 203 203 202 198 201 203 207 201 205
276 285 270 258 260 105 101 325 338 310 326 312 301 315 313 322 318 321 320 318 317 309 281 236 254 235 210 211 212 213 212 214 214 214 213 211 208 208 208 208 209 207 208 206 205 208 213 213 214
267 260 253 287 45 1 16 343 324 319 300 310 301 299 319 318 319 319 316 311 306 323 293 255 237 224 214 212 216 211 213 214 216 218 217 215 212 212 214 213 214 213 213 213 211 211 217 222 226
252 259 15 25 2 324 330 329 323 321 309 295 328 319 322 327 326 324 317 310 301 299 310 277 254 228 220 217 222 215 213 214 215 217 220 215 211 215 210 215 217 213 218 216 215 215 219 224 235
137 304 36 42 21 322 318 302 331 302 295 347 313 317 320 325 323 324 322 311 306 294 295 311 262 245 226 220 220 218 211 216 215 217 220 215 210 213 206 212 221 215 215 219 217 218 221 226 204
257 72 326 335 315 303 306 317 293 311 303 310 300 310 312 317 317 319 319 318 307 301 294 287 301 260 233 220 220 222 213 215 214 210 216 215 199 210 210 208 214 211 217 208 222 217 215 212 221
256 151 264 272 289 290 309 294 299 293 303 292 300 300 303 307 308 309 309 310 310 303 301 298 295 284 256 221 224 219 219 216 214 213 214 208 206 207 209 204 210 212 208 209 210 207 220 215 220
28 279 280 267 277 278 307 293 292 283 315 302 304 303 303 307 308 305 304 304 305 304 299 295 296 283 266 260 217 224 220 217 215 214 211 208 203 208 207 202 205 209 206 211 206 211 213 213 217
277 270 254 235 234 279 326 275 228 318 304 304 305 309 313 313 314 312 308 302 301 298 296 292 298 298 293 265 246 222 222 214 217 215 214 218 200 206 204 204 205 204 207 207 209 211 212 216 211
258 258 256 141 206 275 247 288 280 313 293 299 305 311 312 328 330 323 320 306 303 303 299 296 293 289 287 287 260 247 222 220 214 215 216 219 205 200 210 206 207 203 205 207 206 206 209 210 212
191 271 285 291 191 253 236 286 285 294 294 294 295 311 330 328 331 329 319 308 300 303 304 297 292 288 285 276 272 255 237 219 212 213 216 220 208 202 211 201 209 202 205 210 205 210 208 212 208
331 308 294 283 287 241 281 281 286 294 282 283 298 308 327 331 332 327 321 310 302 301 302 299 295 291 286 278 270 256 246 222 215 211 212 217 215 207 211 201 206 203 204 209 206 206 207 206 209
289 274 273 272 292 299 270 285 281 278 272 237 285 318 328 329 329 328 323 314 305 301 302 302 296 294 291 283 274 268 252 238 216 213 210 212 222 208 210 200 202 209 202 203 205 204 204 196 205
265 268 270 301 232 292 288 277 277 252 215 230 264 298 318 321 324 324 324 323 309 299 298 301 300 296 293 284 276 264 259 248 223 207 209 205 213 207 209 202 209 209 198 202 208 199 200 202 199
255 274 295 306 304 278 268 273 216 182 215 211 246 288 315 322 324 323 322 318 314 303 297 294 299 295 296 289 276 268 255 253 241 208 207 204 210 210 207 210 202 210 195 205 203 209 196 200 201
276 50 295 291 296 295 311 297 203 197 201 226 221 276 319 321 322 323 318 316 313 306 298 294 296 299 298 297 290 273 261 246 240 211 202 203 207 208 211 211 199 211 207 202 210 212 203 197 200
276 323 290 281 277 281 268 236 271 161 223 229 195 311 307 315 322 325 319 314 310 305 300 296 293 302 299 299 287 271 252 252 243 225 196 200 202 211 206 211 208 208 218 206 215 210 205 198 202
290 279 272 257 256 261 254 239 281 288 220 43 292 292 308 315 320 321 317 314 308 307 305 303 295 296 303 301 301 277 256 249 239 223 213 203 205 209 211 212 213 213 219 216 217 217 218 207 197
234 281 308 259 196 235 117 256 255 266 176 257 308 304 317 313 323 321 318 316 312 307 309 306 302 300 301 312 306 298 262 246 245 232 213 195 206 206 210 209 215 214 217 213 213 215 215 210 204
293 305 277 269 271 303 325 272 262 69 105 176 260 286 305 321 324 320 318 316 312 313 311 310 310 307 310 314 313 308 282 240 245 242 223 200 203 209 214 212 213 215 216 208 212 207 206 210 199
129 261 29 304 266 253 239 254 198 135 183 229 256 312 320 330 321 323 322 318 319 314 313 311 311 310 311 312 314 317 309 257 235 244 240 221 218 220 219 216 209 210 211 203 204 198 206 205 205
255 25 234 214 277 293 293 301 303 169 255 357 323 326 323 323 324 325 324 323 319 317 313 312 308 308 307 310 313 315 317 284 236 232 246 236 220 215 209 215 211 206 202 201 201 201 206 200 210
179 226 227 270 269 279 302 278 74 323 349 311 323 316 327 325 322 325 326 323 319 320 315 313 310 308 307 309 311 316 321 302 251 230 227 240 237 224 211 211 207 204 202 203 204 207 198 210 203
272 268 186 221 246 250 288 278 289 333 262 307 311 322 331 321 323 326 323 325 323 318 320 314 311 310 308 307 307 312 312 312 271 243 234 234 232 239 244 218 208 201 204 202 202 204 202 205 210